Location: Choisy
(48.7685°N, 2.4187°E)
Time: 04:05:27
(UTC+00:00)

Cosmos 1980 Rocket - Pass Details

Date: 24 October 2021
Orbit: 828 x 851 km, 71.0° (Epoch: 05 December)

Event Time Altitude Azimuth Distance (km) Brightness Sun altitude
Rises 18:38:19 0° 249° (WSW) 3,395 6.5 -19.5°
Reaches altitude 10° 18:41:13 10° 263° (W) 2,468 5.8 -20.0°
Maximum altitude 18:45:47 24° 317° (NW) 1,680 4.3 -20.7°
Drops below altitude 10° 18:50:23 10° 11° (N) 2,487 4.6 -21.5°
Sets 18:53:20 0° 25° (NNE) 3,428 5.2 -22.0°
Enters shadow 18:53:27 - 25° (NNE) 3,469 5.2 -22.0°
